Regional Weather Roundup
Issued by NWS Mt. Holly, NJ

Current Version | Previous Version | Text Only | Print | Product List | Glossary Off
Versions: 1 2 3 4 5 6 7 8 9 10 11 12 13 14 15 16 17 18 19 20 21 22 23 24 25 26 27 28 29 30 31 32 33 34 35 36 37 38 39 40 41 42 43 44 45 46 47 48 49 50

000
ASUS41 KPHI 211310
RWRPHI

REGIONAL WEATHER ROUNDUP
NATIONAL WEATHER SERVICE MOUNT HOLLY NJ
900 AM EDT TUE OCT 21 2014

NOTE:  "FAIR" INDICATES FEW OR NO CLOUDS BELOW 12,000 FEET WITH NO
SIGNIFICANT WEATHER AND/OR OBSTRUCTIONS TO VISIBILITY.

 * = STATION DOES NOT REPORT PRECIPITATION (E.G. RAIN, SNOW, ETC.)
        OR FOG.

NJZ015>026-211400-
SOUTHERN NEW JERSEY

CITY           SKY/WX    TMP DP  RH WIND       PRES   REMARKS
POMONA         MOSUNNY   56  52  86 CALM      29.89R
RIO GRANDE*    CLOUDY    59  54  82 S3        29.90R
MILLVILLE      MOSUNNY   54  51  90 CALM      29.88S
WRIGHTSTOWN    MOSUNNY   52  50  92 NE2       29.87R
MOUNT HOLLY    PTSUNNY   53  49  86 CALM      29.89S
TRENTON        PTSUNNY   54  46  74 NE3       29.89R

$$
NJZ001>014-211400-
NORTHERN NEW JERSEY

CITY           SKY/WX    TMP DP  RH WIND       PRES   REMARKS
SUSSEX         CLOUDY    50  46  86 N3        29.91R
ANDOVER*         N/A     50  48  93 CALM      29.90R
MORRISTOWN     PTSUNNY   52  50  93 E3        29.91R
NEWARK         PTSUNNY   58  49  72 NE3       29.90S
TETERBORO      PTSUNNY   57  46  66 CALM      29.89S
CALDWELL       LGT RAIN  50  44  80 E3        29.92R
SOMERVILLE     CLOUDY    51  47  86 N3        29.89S
ALLAIRE*       MOSUNNY   54  45  71 CALM      29.89S
TOMS RIVER*    PTSUNNY   54  48  82 CALM      29.90R

$$
PAZ043-044-047-054-055-060>062-066>071-211400-
EASTERN PENNSYLVANIA

CITY           SKY/WX    TMP DP  RH WIND       PRES   REMARKS
PHILADELPHIA   MOSUNNY   56  51  84 E3        29.88S
NORTH PHILA    SUNNY     53  46  77 E3        29.90S
BLUE BELL      SUNNY     54  50  87 CALM      29.87S
DOYLESTOWN     PTSUNNY   49  47  93 CALM      29.88S
QUAKERTOWN*    MOSUNNY   50  48  93 CALM      29.89S
POTTSTOWN      SUNNY     54  49  83 CALM      29.89S
LANCASTER      PTSUNNY   51  49  92 CALM      29.88R
COATESVILLE    SUNNY     54  48  82 CALM      29.88S
READING        MOSUNNY   53  50  89 CALM      29.88R
ALLENTOWN      CLOUDY    52  47  83 E6        29.89R
MOUNT POCONO   FOG       48  46  93 SE6       29.88R VSB<1/4
HAZLETON       CLOUDY    50  48  93 CALM      29.90R FOG
WILKES BARRE   CLOUDY    54  48  80 N3        29.87R

$$
DEZALL-MDZ008-012-015-019-020-211400-
DELAWARE AND EASTERN MARYLAND

CITY           SKY/WX    TMP DP  RH WIND       PRES   REMARKS
WILMINGTON     SUNNY     53  49  86 CALM      29.89R
DOVER          PTSUNNY   58  57  99 SW6       29.86R
GEORGETOWN     CLOUDY    59  55  87 S7        29.89R
EASTON         SUNNY     57  57 100 CALM      29.92R
PATUXENT       CLOUDY    58  49  72 SW5       29.88R
OCEAN CITY     LGT RAIN  61  56  83 W6        29.89F
WALLOPS ISLAND PTSUNNY   63  58  83 SW5       29.90S
CAMBRIDGE      PTSUNNY   57  54  88 SE3       29.88R
SALISBURY      CLOUDY    61  56  83 S3        29.89S

$$
PAZ001-021-NYZ056-072-MDZ011-DCZ001-211400-
OTHER NEARBY LOCATIONS

CITY           SKY/WX    TMP DP  RH WIND       PRES   REMARKS
HARRISBURG     PTSUNNY   53  50  89 SE3       29.87R FOG
STATE COLLEGE  CLOUDY    46  46 100 CALM      29.86R
WILLIAMSPORT   CLOUDY    49  46  90 CALM      29.86R
BINGHAMTON     CLOUDY    49  44  83 S6        29.84R
NEW YORK CITY  MOSUNNY   58  46  64 E5        29.92S
BALTIMORE      MOSUNNY   52  49  89 CALM      29.87R
WASHINGTON DC  MOSUNNY   57  49  74 SW5       29.89R

$$


USA.gov is the U.S. government's official web portal to all federal, state and local government web resources and services.